User: anonymous   Login
Location: Pian di Sc�
(43.6333°N, 11.5500°E)
Time: 11:24:24
(UTC+00:00)
Language:

Cosmos 1805 - Orbit

View from above orbital plane
View from above orbital plane
View from above satellite
View from above satellite

Ground track
Ground track

The orbit data is extracted from the following two-line orbital elements,

1 17191U 86097A   20304.91906291 +.00000202 +00000-0 +97659-5 0  9990
2 17191 082.4738 255.3239 0005549 136.8071 223.3596 15.12739017849514
Epoch (UTC): 30 October 2020 22:03:27
Eccentricity: 0.0005549
inclination: 82.4738°
perigee height: 524 km
apogee height: 531 km
right ascension of ascending node: 255.3239°
argument of perigee: 136.8071°
revolutions per day: 15.12739017
mean anomaly at epoch: 223.3596°
orbit number at epoch: 84951

The dashed part of the orbit path shows where the satellite is in the earth's shadow,  

DLR